Flag for Spain Weather past 2 weeks in Arrecife, Canary Islands, Spain

Now
63 °F

Passing clouds.


Feels Like: 63 °F
Forecast: 60 / 68 °F
Wind: 10 mph from Northeast

Location: Lanzarote / Aeropuerto

Current Time: Dec 29, 2014 at 12:26:28 AM

Latest Report: Dec 28, 2014 at 11:30 PM


Visibility: N/A

Pressure: 30.30 "Hg

Humidity: 64%

Dew point: 50 °F

Location of ArrecifeLocation

Historic Weather in Arrecife — Graph

°F

Arrecife temperature yesterday

Maximum temperature yesterday: 66 °F (at 10:30 AM)
Minimum temperature yesterday: 55 °F (at 7:00 AM)
Average temperature yesterday: 63 °F

Past Weeks' High & Low Weather Summary

 TemperatureHumidityPressure
High70 °F (Dec 16, 12:00 PM)94% (Dec 19, 12:30 AM)30.42 "Hg (Dec 19, 12:30 AM)
Low55 °F (Dec 28, 7:00 AM)49% (Dec 14, 3:00 PM)30.15 "Hg (Dec 22, 4:00 PM)
Average65 °F74%30.29 "Hg
* Reported Dec 13 11:00 PM — Dec 28 11:30 PM, Arrecife, Weather by CustomWeather, © 2014

Note: Actual official high and low records may vary slightly from our data, if they occured in-between our weather recording intervals... More about our weather records

Advertising

Arrecife weather history for previous 24 hours

 ConditionsComfort  
Time TempWeatherWind HumidityBarometerVisibility
11:30 PM
Dec 28
63 °FPassing clouds.10 mph64%30.30 "HgN/A
11:00 PM63 °FPassing clouds.5 mph64%30.33 "HgN/A
10:30 PM63 °FPassing clouds.7 mph64%30.33 "HgN/A
10:00 PM64 °FPassing clouds.5 mph60%30.30 "HgN/A
9:30 PM63 °FPassing clouds.7 mph64%30.33 "HgN/A
9:00 PM63 °FPassing clouds.5 mph68%30.33 "HgN/A
8:30 PM61 °FPassing clouds.8 mph72%30.30 "HgN/A
8:00 PM63 °FPassing clouds.8 mph68%30.30 "HgN/A
7:30 PM63 °FPassing clouds.9 mph64%30.30 "HgN/A
7:00 PM63 °FPassing clouds.9 mph64%30.30 "HgN/A
6:30 PM64 °FPassing clouds.12 mph64%30.27 "HgN/A
6:00 PM66 °FScattered clouds.10 mph56%30.27 "HgN/A
5:30 PM66 °FScattered clouds.12 mph64%30.27 "HgN/A
5:00 PM66 °FScattered clouds.12 mph64%30.27 "HgN/A
4:30 PM66 °FScattered clouds.13 mph68%30.27 "HgN/A
4:00 PM66 °FScattered clouds.15 mph73%30.24 "HgN/A
3:30 PM66 °FScattered clouds.16 mph73%30.24 "HgN/A
3:00 PM66 °FScattered clouds.14 mph68%30.27 "HgN/A
2:30 PM66 °FScattered clouds.13 mph73%30.27 "HgN/A
2:00 PM66 °FScattered clouds.12 mph68%30.27 "HgN/A
1:30 PM66 °FScattered clouds.14 mph73%30.27 "HgN/A
1:00 PM66 °FScattered clouds.10 mph73%30.30 "HgN/A
12:30 PM66 °FScattered clouds.12 mph68%30.30 "HgN/A
12:00 PM66 °FPassing clouds.13 mph68%30.33 "HgN/A
11:30 AM66 °FPassing clouds.10 mph68%30.33 "HgN/A
11:00 AM66 °FPassing clouds.9 mph64%30.33 "HgN/A
10:30 AM66 °FPassing clouds.10 mph68%30.33 "HgN/A
10:00 AM64 °FPassing clouds.9 mph68%30.33 "HgN/A
9:30 AM64 °FPassing clouds.9 mph68%30.33 "HgN/A
9:00 AM61 °FPassing clouds.7 mph77%30.33 "HgN/A
8:30 AM59 °FPassing clouds.8 mph82%30.30 "HgN/A
8:00 AM55 °FPassing clouds.7 mph88%30.30 "HgN/A
7:30 AM55 °FPassing clouds.7 mph88%30.30 "HgN/A
7:00 AM55 °FClear.8 mph94%30.30 "Hg10 mi
6:30 AM57 °FClear.7 mph88%30.30 "Hg10 mi
6:00 AM57 °FClear.8 mph88%30.30 "Hg10 mi
1:00 AM59 °FPassing clouds.6 mph88%30.33 "HgN/A
12:30 AM59 °FPassing clouds.7 mph88%30.36 "HgN/A
12:00 AM57 °FPassing clouds.3 mph88%30.36 "HgN/A
Weather by CustomWeather, © 2014

See weather overviewHow to use our weather pages